BEIDOU-3 M14

Last updated on Sat Apr 11 2026 00:02:39 GMT+0000 (Coordinated Universal Time)

1 43623U 18072B 26099.67095284 -.00000001 00000+0 00000+0 0 9993 2 43623 56.5686 64.9130 0006792 337.1421 22.8124 1.86231479 51370
UTC large
Height (km)
Speed (km/s)
/
Latitude / Longitude
Inclination (degrees)
Orbital Period (minutes)
Azimuth
Elevation
Range (km)
Doppler Factor

Next 0 passes for location: London (51.5072 / 0.1276)

Sorry there are no passes over London.